Location: Hilton Head Island
(32.2163°N, 80.7526°W)
Time: 22:39:39
(UTC-04:00)

Vanguard 2 Rocket - Pass Details

Date: 20 February 2026
Orbit: 553 x 3286 km, 32.9° (Epoch: 13 March)

Event Time Altitude Azimuth Distance (km) Brightness Sun altitude
Rises 12:34:13 0° 250° (WSW) 7,187 11.6 47.1°
Reaches altitude 10° 12:38:58 10° 250° (WSW) 6,225 11.5 47.1°
Maximum altitude 12:59:12 84° 166° (SSE) 2,873 10.4 46.7°
Drops below altitude 10° 13:13:11 10° 80° (E) 4,530 10.4 46.2°
Sets 13:16:03 0° 80° (E) 5,229 10.6 46.0°
